Regional Weather Roundup
Issued by NWS

Home | Current Version | Previous Version | Text Only | Print | Product List | Glossary Off
Versions: 1 2 3 4 5 6 7 8 9 10 11 12 13 14 15 16 17 18 19 20 21 22 23 24 25 26 27 28 29 30 31 32 33 34 35 36 37 38 39 40 41 42 43 44 45 46 47 48 49 50

000
ASUS43 KMKX 281410
RWRWI

WISCONSIN REGIONAL WEATHER ROUNDUP
NATIONAL WEATHER SERVICE MILWAUKEE/SULLIVAN WI
800 AM CST SAT FEB 28 2015

NOTE: "FAIR" INDICATES FEW OR NO CLOUDS BELOW 12,000 FEET WITH NO
SIGNIFICANT WEATHER AND/OR OBSTRUCTIONS TO VISIBILITY.

WIZ001-002-006>008-014>016-023>028-281500-
NORTHWEST WISCONSIN

CITY           SKY/WX    TMP DP  RH WIND       PRES   REMARKS
SUPERIOR ARPT  MOSUNNY    0  -5  81 CALM      30.48S
ASHLAND        SUNNY      2  -4  76 S5        30.50S WCI  -8
HAYWARD        MOSUNNY   -5 -11  75 S5        30.48S WCI -16
SIREN          PTSUNNY   -2  -6  81 S7        30.50R WCI -15
CUMBERLAND     FAIR      -4  -9  77 S5        30.50R WCI -15
RICE LAKE      FAIR      -8 -13  78 CALM      30.54R
CHETEK         FAIR      -7 -12  79 CALM      30.54R
LADYSMITH      MOSUNNY   -4  -8  83 S3        30.53S
EAU CLAIRE     MOSUNNY   -5  -9  83 S7        30.57R WCI -19
MENOMONIE      FAIR      -3  -7  80 E5        30.57R WCI -13
NEW RICHMOND   FAIR       0  -4  82 S7        30.53R WCI -13
OSCEOLA        SUNNY      0  -4  81 S6        30.56R WCI -12
$$

WIZ003>005-009-010-017-018-281500-
NORTH CENTRAL WISCONSIN

CITY           SKY/WX    TMP DP  RH WIND       PRES   REMARKS
MANITOWISH WTR MOSUNNY   -6  -9  83 SW6       30.45R WCI -18
ARBOR VITAE    MOSUNNY   -7 -11  80 S3        30.46S
WOODRUFF       MOSUNNY   -7 -11  80 S3        30.46S
RHINELANDER    MOSUNNY   -6 -11  79 SW6       30.48R WCI -19
EAGLE RIVER    MOSUNNY   -7 -12  76 CALM      30.46S
LAND O LAKES   MOSUNNY  -10 -15  79 CALM      30.46R
PHILLIPS       PTSUNNY   -5  -9  84 S3        30.48R
TOMAHAWK       MOSUNNY  -11 -15  80 CALM      30.51R
MEDFORD        MOSUNNY   -6 -10  83 S5        30.51R WCI -16
MERRILL        MOSUNNY  -13 -19  74 CALM      30.53S
$$

WIZ029-030-035-036-043>047-281500-
CENTRAL WISCONSIN

CITY           SKY/WX    TMP DP  RH WIND       PRES   REMARKS
WAUSAU         PTSUNNY   -5  -9  83 S7        30.55R WCI -19
MOSINEE        SUNNY     -8 -11  84 S3        30.57R
MARSHFIELD     PTSUNNY   -6  -9  86 SW3       30.55R
STEVENS POINT  MOSUNNY   -6 -10  81 S3        30.59S
WAUPACA        MOSUNNY    1  -6  73 CALM      30.63S
WAUTOMA        MOSUNNY  -10 -17  71 CALM      30.64R
WISC RAPIDS    PTSUNNY   -6 -11  79 SW5       30.61R WCI -17
CAMP DOUGLAS   SUNNY     -4  -8  84 E5        30.61S WCI -15
$$

WIZ011>013-019>022-031-037>040-048>050-281500-
NORTHEAST WISCONSIN

CITY           SKY/WX    TMP DP  RH WIND       PRES   REMARKS
ANTIGO         PTSUNNY   -7 -11  84 CALM      30.51S
SHAWANO        SUNNY      3  -5  69 SW3       30.63R
OCONTO         SUNNY      3  -5  69 SW6       30.64R WCI  -8
STURGEON BAY   SUNNY      3  -6  66 SW9       30.63R WCI -11
GREEN BAY      SUNNY      3  -5  69 SW6       30.65R WCI  -8
MANITOWOC      SUNNY      8  -2  63 W5        30.66R WCI   0
APPLETON       SUNNY      1  -8  66 SW6       30.62R WCI -10
CLINTONVILLE   MOSUNNY    1  -8  66 SW5       30.62R WCI  -8
OSHKOSH        SUNNY      1  -6  72 S5        30.64R WCI  -9
$$

WIZ032>034-041-042-053>061-281500-
SOUTHWEST WISCONSIN

CITY           SKY/WX    TMP DP  RH WIND       PRES   REMARKS
LA CROSSE      MOSUNNY   -6 -11  79 S7        30.64R WCI -20
SPARTA         MOSUNNY  -12 -18  73 CALM      30.62S
VIROQUA        MOSUNNY   -2  -6  83 S5        30.56R WCI -13
BOSCOBEL       PTSUNNY  -13 -16  86 CALM      30.68R
PRAIRIE DU CHI PTSUNNY  -14 -21  72 CALM      30.68R
PLATTEVILLE    PTSUNNY   -5  -9  82 SE6       30.63R WCI -17
$$

WIZ056-057-062-063-064-067-068-281500-
SOUTH CENTRAL WISCONSIN

CITY           SKY/WX    TMP DP  RH WIND       PRES   REMARKS
REEDSBURG      MOSUNNY   -4 -10  75 CALM      30.63R
BARABOO/DELLS  MOSUNNY   -3  -8  77 CALM      30.62R
LONE ROCK      PTSUNNY  -11 -18  71 CALM      30.67R
MINERAL POINT  PTSUNNY   -4  -9  77 S6        30.61R WCI -16
MADISON        PTSUNNY   -2  -8  76 S7        30.65R WCI -15
MIDDLETON      PTSUNNY   -5 -11  75 CALM      30.64S
WATERTOWN      MOSUNNY   -2  -7  80 CALM      30.66R
MONROE         PTSUNNY   -2  -6  84 S5        30.63R WCI -12
JANESVILLE     SUNNY     -9 -17  70 CALM      30.68R
$$

WIZ051-052-058>065-066-070>072-281500-
SOUTHEAST WISCONSIN

CITY           SKY/WX    TMP DP  RH WIND       PRES   REMARKS
MILWAUKEE      MOSUNNY   -1  -8  72 SW6       30.69R WCI -13
WAUKESHA       SUNNY      0  -8  71 CALM      30.67R
MILWAUKEE/TIMM SUNNY      1  -8  66 CALM      30.68R
RACINE         MOSUNNY    0  -8  69 SW3       30.71R
BURLINGTON     MOSUNNY  -14 -19  78 CALM      30.68R
KENOSHA        MOSUNNY   -4  -8  83 SW6       30.69R WCI -16
FOND DU LAC    SUNNY      1  -7  68 SW7       30.65R WCI -12
SHEBOYGAN      SUNNY      1  -6  72 S5        30.65R WCI  -9
WEST BEND      SUNNY      3  -6  66 SW3       30.65R
JUNEAU         MOSUNNY   -1  -7  74 S5        30.66R WCI -11
$$

LSZ147-162-281500-
LAKE SUPERIOR

STATION/POSITION TIME  TEMP    WIND        PRES    WAVE
                       AIR SEA DIR/SP/G            HT/PER
                 (UTC) (F)     (DEG/KT/KT) (MB)    (FT/S)
DEVILS ISLAND    1400    6     210/  6/  8 1034.2R
PORT WING        1340    3     170/  7/ 11 1032.2F
SAXON HARBOR     1300    2     200/  3/  7 1033.2S
$$

LMZ867-665-643>646-281500-
LAKE MICHIGAN

STATION/POSITION TIME  TEMP    WIND        PRES    WAVE
                       AIR SEA DIR/SP/G            HT/PER
                 (UTC) (F)     (DEG/KT/KT) (MB)    (FT/S)
NORTHPORT PIER   1300    5     230/  6/ 10 1035.9
SISTER BAY       1143    4     230/  7/  9   N/A
KEWAUNEE LAKESHO 1300    3     260/  5/  9 1036.1R
SHEBOYGAN LAKESH 1400    5     260/  7/  9 1040.4R
PORT WASHINGTON  1300    3     250/  3/  4 1039.3R
MILWAUKEE LAKESH 1300    4     220/  5/  6   N/A
KENOSHA   LAKESH 1400    3     250/  2/  4 1039.3R
$$

TC  - TEMPERATURE IN CELSIUS
VSB - VISIBILITY IN STATUTE MILES
WCI - WIND CHILL INDEX
HX  - HEAT INDEX



USA.gov is the U.S. government's official web portal to all federal, state and local government web resources and services.